Location: Cazarilh
(42.9578°N, 0.5819°E)
Time: 12:02:38
(UTC+00:00)

Cosmos 1869 Rocket - Pass Details

Date: 11 December 2019
Orbit: 606 x 632 km, 82.5° (Epoch: 21 January)

Event Time Altitude Azimuth Distance (km) Brightness Sun altitude
Rises 04:50:10 0° 172° (S) 2,847 7.2 -26.2°
Reaches altitude 10° 04:52:25 10° 167° (SSE) 1,949 6.3 -25.8°
Maximum altitude 04:56:33 48° 93° (E) 802 4.4 -25.1°
Drops below altitude 10° 05:00:45 10° 20° (NNE) 1,972 6.2 -24.3°
Sets 05:03:02 0° 14° (NNE) 2,885 7.1 -23.9°
